Tracking 35055 objects as of 18-Aug-2026
HD Live streaming from Space Station
objects crossing your sky now

CUPID

Track CUPID now!
10-day predictions
CUPID is classified as:


NORAD ID: 49264
Int'l Code: 2021-088E
Launch date: September 27, 2021
Source: United States (US)
Launch site: AIR FORCE WESTERN TEST RANGE (AFWTR)

Uplink (MHz):
Downlink (MHz): 400.500
Beacon (MHz):
Mode: 38k4 GFSK
Call sign:
Status: Inactive

Your satellite tracking list
Your tracking list is empty




NASA's NSSDC Master Catalog

Two Line Element Set (TLE):
1 49264U 21088E   26230.40392067  .00006855  00000-0  26289-3 0  9992
2 49264  97.3815 290.8894 0011416 196.0649 164.0229 15.26759102269670
Source of the keplerian elements: AFSPC